ONEWEB-0137 (47283 NORAD) Tracking and Keplerian Element Data

This shows tracking and keplerian element data for the satellite.

Feedback or suggestion? Click here.




ElementValue
Catalog47283
NameONEWEB-0137
Epoch Orbit176
Epoch Day15.91667824
Epoch Year2021
RAAN29.7236
Inclination87.399
Eccentricity0.0011797
Argument of Perigee150.6572
Mean Anonmoly165.0742
Mean Motion15.04075451
Decay Rate-0.0131652
L11 47283U 20100AB 21015.91667824 -.01316520 00000-0 -10310+0 0 9993
L22 47283 87.3990 29.7236 0011797 150.6572 165.0742 15.04075451 1763

Live tracking and technical data element details for ONEWEB-0137 (NORAD 47283). ONEWEB-0137 can be tracked NOW for your location showing map with azimuth and elevation plus other details from your city location.

Track the satellite on the map from your city or location and see movement details for azimuth, elevation, latitude, longitude, range, height, and movement on the map or in text.







IsCatalogInMostPopularTable: catalog: 47283, numindb: 9
Update: records affected: 1



GetName: 47283 ONEWEB-0137

Hit Count: updated at: Sun, 17 Jan 2021 09:32:25 GMT